Budapest Ferihegy, Hungary

8:25 AM CEST on October 19, 2017 (GMT +0200)
Ferihegy

Weather History for LHBP - November, 2012

Change the Weather History Date:

Sunday, November 4, 2012

  Actual Average Record
Temperature  
Mean Temperature 52 °F -  
Max Temperature 64 °F 45 °F 64 °F (2012)
Min Temperature 41 °F 32 °F 21 °F (1997)
Degree Days  
Heating Degree Days 12    
Growing Degree Days 2 (Base 50)    
Moisture  
Dew Point 48 °F    
Average Humidity 80    
Maximum Humidity 100    
Minimum Humidity 59    
Precipitation  
Precipitation 0.00 in - - ()
Sea Level Pressure  
Sea Level Pressure 29.84 in    
Wind  
Wind Speed 8 mph ()    
Max Wind Speed 16 mph    
Max Gust Speed 25 mph    
Visibility 5.5 miles    
Events Fog , Rain    
Averages and records for this station are not official NWS values.
T = Trace of Precipitation, MM = Missing Value Source: Averaged Metar Reports

Daily Weather History Graph

Daily Weather History Graph

Search for Another Location

Airport or City:

Trip Planner

Search our weather history database for the weather conditions in past years. The results will help you decide how hot, cold, wet, or windy it might be!

Date:

Astronomy

Nov. 04, 2012 Rise Set
Actual Time 6:31 AM CET 4:20 PM CET
Civil Twilight 5:58 AM CET 4:53 PM CET
Nautical Twilight 5:22 AM CET 5:29 PM CET
Astronomical Twilight 4:46 AM CET 6:05 PM CET
Moon 8:36 PM CET (11/4) 11:09 AM CET (11/4)
Length of Visible Light 10h 54m
Length of Day
9h 49m
Waning Gibbous, 74% of the Moon is Illuminated
Nov 4
Waning Gibbous
Nov 7
Last Quarter
Nov 13
New
Nov 20
First Quarter
Nov 28
Full

Hourly Weather History & Observations

Time (CET) Temp. Windchill Dew Point Humidity Pressure Visibility Wind Dir Wind Speed Gust Speed Precip Events Conditions
12:00 AM 50.0 °F - 50.0 °F 100% 29.92 in 5.0 mi East 6.9 mph - N/A   Unknown
12:30 AM 50.0 °F - 50.0 °F 100% 29.92 in - ESE 9.2 mph - N/A   Clear
1:00 AM 46.4 °F 42.4 °F 46.4 °F 100% 29.92 in 5.0 mi ESE 8.1 mph - N/A   Unknown
1:30 AM 46.4 °F 42.4 °F 44.6 °F 93% 29.92 in 3.7 mi East 8.1 mph - N/A   Unknown
2:00 AM 44.6 °F 40.7 °F 44.6 °F 100% 29.89 in 5.0 mi East 6.9 mph - N/A   Unknown
2:30 AM 46.4 °F 42.4 °F 44.6 °F 93% 29.89 in 5.0 mi ESE 8.1 mph - N/A   Unknown
3:00 AM 42.8 °F 39.3 °F 42.8 °F 100% 29.89 in 5.0 mi East 5.8 mph - N/A Fog Fog
3:30 AM 44.6 °F 41.4 °F 44.6 °F 100% 29.89 in 5.0 mi East 5.8 mph - N/A Fog Fog
4:00 AM 44.6 °F 40.2 °F 44.6 °F 100% 29.89 in 5.0 mi East 8.1 mph - N/A Fog Fog
4:30 AM 41.0 °F 35.8 °F 41.0 °F 100% 29.89 in 5.0 mi ESE 8.1 mph - N/A Fog Fog
5:00 AM 46.4 °F 42.4 °F 46.4 °F 100% 29.89 in 6.2 mi ESE 8.1 mph - N/A Fog Shallow Fog
5:30 AM 44.6 °F 43.1 °F 44.6 °F 100% 29.89 in 6.2 mi Variable 3.5 mph - N/A Fog Shallow Fog
6:00 AM 44.6 °F 40.7 °F 44.6 °F 100% 29.86 in 5.0 mi East 6.9 mph - N/A   Unknown
6:30 AM 44.6 °F 42.2 °F 44.6 °F 100% 29.89 in 5.0 mi East 4.6 mph - N/A   Unknown
7:00 AM 44.6 °F 43.1 °F 42.8 °F 93% 29.89 in 5.0 mi Variable 3.5 mph - N/A   Unknown
7:30 AM 44.6 °F 42.2 °F 42.8 °F 93% 29.89 in 5.0 mi East 4.6 mph - N/A   Unknown
8:00 AM 46.4 °F 43.5 °F 46.4 °F 100% 29.89 in - ESE 5.8 mph - N/A   Clear
8:30 AM 50.0 °F - 48.2 °F 94% 29.89 in - SE 6.9 mph - N/A   Clear
9:00 AM 50.0 °F - 46.4 °F 87% 29.89 in - Variable 3.5 mph - N/A   Clear
9:30 AM 53.6 °F - 48.2 °F 82% 29.89 in - Variable 3.5 mph - N/A   Clear
10:00 AM 57.2 °F - 50.0 °F 77% 29.89 in - South 5.8 mph - N/A   Clear
10:30 AM 59.0 °F - 50.0 °F 72% 29.89 in - South 10.4 mph - N/A   Clear
11:00 AM 60.8 °F - 48.2 °F 63% 29.89 in - South 13.8 mph - N/A   Clear
11:30 AM 62.6 °F - 50.0 °F 63% 29.86 in - South 11.5 mph - N/A   Clear
12:00 PM 64.4 °F - 50.0 °F 59% 29.86 in 6.2 mi South 12.7 mph 25.3 mph N/A   Partly Cloudy
12:30 PM 64.4 °F - 50.0 °F 59% 29.83 in 6.2 mi South 13.8 mph - N/A   Partly Cloudy
1:00 PM 64.4 °F - 50.0 °F 59% 29.83 in 6.2 mi South 15.0 mph - N/A   Scattered Clouds
1:30 PM 64.4 °F - 50.0 °F 59% 29.83 in 6.2 mi South 16.1 mph - N/A   Scattered Clouds
2:00 PM 64.4 °F - 50.0 °F 59% 29.80 in 6.2 mi South 12.7 mph - N/A   Scattered Clouds
2:30 PM 64.4 °F - 50.0 °F 59% 29.83 in 6.2 mi South 15.0 mph - N/A   Scattered Clouds
3:00 PM 64.4 °F - 50.0 °F 59% 29.80 in 6.2 mi South 10.4 mph - N/A   Scattered Clouds
3:30 PM 64.4 °F - 50.0 °F 59% 29.80 in - South 13.8 mph - N/A   Clear
4:00 PM 62.6 °F - 50.0 °F 63% 29.80 in - South 11.5 mph - N/A   Clear
4:30 PM 60.8 °F - 50.0 °F 68% 29.80 in - South 12.7 mph - N/A   Clear
5:00 PM 60.8 °F - 50.0 °F 68% 29.80 in - SSE 8.1 mph - N/A   Clear
5:30 PM 60.8 °F - 50.0 °F 68% 29.80 in - SSE 6.9 mph - N/A   Clear
6:00 PM 60.8 °F - 50.0 °F 68% 29.80 in - SSE 9.2 mph - N/A   Clear
6:30 PM 59.0 °F - 50.0 °F 72% 29.80 in 6.2 mi SSE 8.1 mph - N/A Rain Light Rain Showers
7:00 PM 59.0 °F - 51.8 °F 77% 29.80 in 6.2 mi SSE 8.1 mph - N/A Rain Light Rain Showers
7:30 PM 59.0 °F - 50.0 °F 72% 29.77 in - SSE 8.1 mph - N/A   Clear
8:00 PM 59.0 °F - 50.0 °F 72% 29.77 in - SE 9.2 mph - N/A   Clear
8:30 PM 59.0 °F - 50.0 °F 72% 29.77 in - SE 9.2 mph - N/A   Clear
9:00 PM 57.2 °F - 50.0 °F 77% 29.77 in - SE 8.1 mph - N/A   Clear
9:30 PM 59.0 °F - 50.0 °F 72% 29.74 in - SE 8.1 mph - N/A   Clear
10:00 PM 59.0 °F - 50.0 °F 72% 29.74 in - SE 8.1 mph - N/A   Clear
10:30 PM 59.0 °F - 50.0 °F 72% 29.71 in - SSE 8.1 mph - N/A   Clear
11:00 PM 59.0 °F - 50.0 °F 72% 29.71 in 6.2 mi SE 8.1 mph - N/A   Overcast
11:30 PM 57.2 °F - 50.0 °F 77% 29.71 in - SE 9.2 mph - N/A   Clear